Location: Bidart
(43.4376°N, 1.5913°W)
Time: 18:38:32
(UTC+00:00)

Daily predictions for brighter satellites

Satellite Brightness Start Highest point End
(mag) Time Altitude Azimuth Time Altitude Azimuth Time Altitude Azimuth
Cosmos 1656 4.3 19:52:41 10° NNW 19:58:02 42° ENE 20:03:17 10° SE
Cosmos 1933 4.4 19:58:20 10° SE 20:01:29 24° E 20:04:39 10° NE
Okean O Rocket 2.3 19:58:23 10° SE 20:02:23 36° ENE 20:06:22 10° N
Cosmos 2184 Rocket 4.3 19:56:30 10° N 20:02:35 51° ENE 20:08:41 10° SSE
Meteor PRIRODA 3.7 20:02:18 10° SE 20:05:03 39° ENE 20:07:51 10° N
Iridium 4 Rocket 4.3 20:02:37 10° NNE 20:07:22 35° E 20:12:24 10° SSE
Okean-O 3.6 20:04:07 10° SE 20:07:57 31° ENE 20:11:48 10° N
ERS-1 Rocket 3.7 20:05:27 10° SE 20:09:59 36° ENE 20:14:34 10° N
Feng Yun 1-1 Rocket 4.4 20:06:20 10° SSE 20:11:57 89° ENE 20:17:46 10° NNW
MOS 1 4.5 20:11:12 10° SSE 20:16:48 62° ENE 20:22:25 10° N
ISS -1.3 20:15:27 10° NW 20:18:00 20° N 20:20:33 10° NE
Gbstr 26 Del rocket 4.4 20:13:19 10° WNW 20:18:41 41° SW 20:23:07 10° SSE
Cosmos 1743 3.6 20:15:51 10° NNE 20:18:49 26° ENE 20:21:21 12° SE
Lacrosse 4 Rocket 3.9 20:15:47 10° WSW 20:19:06 26° NW 20:22:30 10° N
CZ-4B R/B 2.8 20:16:19 10° SSE 20:20:23 81° ENE 20:24:22 10° N
ARIANE 6 FM1 Upper Stage 2.6 20:17:10 10° SSW 20:21:05 55° SE 20:25:01 10° NE
NOSS 3-1 (C) 3.8 20:17:31 10° SSE 20:21:20 26° ESE 20:25:37 10° ENE
Cosmos 1782 2.7 20:20:25 10° SSW 20:24:04 77° W 20:27:46 10° N
Cosmos 1726 Rocket 3.5 20:22:00 10° S 20:26:25 86° E 20:30:50 10° N
Cosmos 1833 Rocket 3.2 20:22:23 10° S 20:27:34 39° ESE 20:32:45 10° NE
MetOp-B 4.2 20:22:23 10° SSE 20:27:41 70° ENE 20:33:01 10° N
CZ-4 R/B 3.1 20:24:23 10° SSW 20:27:55 30° W 20:31:26 10° NNW
DELTA 2 R/B (1) 4.3 20:27:42 10° SW 20:32:34 32° SSE 20:37:27 10° E
Cosmos 1076 Rocket 3.5 20:31:53 10° N 20:36:13 67° E 20:40:10 12° SSE
Cosmos 158 Rocket 4.2 20:31:26 10° S 20:36:31 52° ESE 20:41:43 10° NNE
USA 186 3.7 20:34:36 10° SSW 20:36:52 23° W 20:39:09 10° NW
Cosmos 2058 Rocket 3.1 20:37:29 10° S 20:41:54 62° E 20:46:19 10° NNE
Cosmos 1825 Rocket 4.3 20:38:51 10° NNW 20:43:02 52° W 20:47:11 10° S
DEBRIS 4.3 20:38:32 10° WNW 20:45:16 33° SW 20:47:32 14° S
Helios 1A 2.9 20:45:48 10° NNE 20:49:51 85° W 20:53:51 10° SSW
NOSS 3-1 (A) 4.2 20:50:27 18° ESE 20:51:08 18° ESE 20:54:36 10° ENE
Cosmos 2360 4.2 20:46:35 10° NNW 20:52:20 77° ENE 20:56:36 18° SSE
Resurs 01 Rocket 4.4 20:50:15 10° WSW 20:52:30 14° W 20:54:45 10° WNW
Helios 1B rocket 3.5 20:49:07 10° SSW 20:52:30 35° W 20:55:55 10° NNW
ATLAS CENTAUR R/B 1.1 20:49:21 10° SW 20:52:59 81° NW 20:56:47 10° NNE
Cosmos 1980 Rocket 3.8 20:49:16 10° N 20:53:37 23° NE 20:57:27 12° E
Terra 1.7 20:50:03 15° SSE 20:53:53 79° ENE 20:58:36 10° N
Cosmos 1315 Rocket 4.4 20:55:12 16° E 20:55:42 17° E 20:58:14 10° NE
USA 234 3.2 20:52:55 10° NE 20:59:29 83° SE 21:06:02 10° SW
SAR-Lupe-2 3.6 20:57:49 24° SSE 20:59:45 61° ENE 21:03:18 10° N
Meteor 2-2 Rocket 4.4 20:57:32 10° S 21:03:14 63° E 21:09:09 10° NNE
BlueWalker 3 3.1 21:04:29 10° NW 21:07:52 35° NNE 21:10:12 17° E
Cosmos 1400 Rocket 3.8 21:05:53 10° SSW 21:09:23 42° WNW 21:12:55 10° N
Cosmos 1125 Rocket 3.6 21:05:42 10° NNW 21:10:59 65° ENE 21:14:02 25° SE
Cosmos 1346 Rocket 2.5 21:09:07 10° N 21:12:50 81° E 21:14:32 30° SSE
Cosmos 2366 rocket 4.3 21:11:20 10° N 21:17:33 53° ENE 21:21:09 25° SE
IRS-1C Rocket 4.1 21:15:27 24° SSE 21:18:42 77° ENE 21:23:59 10° N
Ariane Rocket 3.2 21:16:59 26° SE 21:19:39 57° ENE 21:24:37 10° N
Cosmos 1238 Rocket 3.5 21:22:13 29° E 21:22:23 30° E 21:25:25 10° NNE
Cosmos 44 3.3 21:18:28 10° NNW 21:23:01 63° NE 21:25:13 31° SE
Cosmos 1570 Rocket 3.9 21:19:35 11° SSW 21:24:40 77° ESE 21:29:57 10° NNE
Lacrosse 5 rocket 1.0 21:22:06 10° NW 21:25:38 67° NE 21:26:34 43° ESE
CZ-4C R/B 3.7 21:18:36 10° NW 21:25:45 49° WSW 21:32:15 17° S
SL-8 Rocket 4.0 21:20:02 10° N 21:26:11 68° E 21:29:41 27° SSE
Cosmos 1697 Rocket 2.7 21:20:37 10° NNW 21:26:19 77° ENE 21:29:17 29° SSE
Cosmos 2327 Rocket 4.5 21:20:51 10° N 21:27:00 81° W 21:31:17 21° S
ATLAS 3B R/B 4.2 21:30:07 18° ESE 21:30:26 18° ESE 21:35:14 10° ENE
Cosmos-2242 3.6 21:27:28 12° SSW 21:31:15 56° W 21:35:27 10° N
Cosmos 836 Rocket 4.4 21:27:44 19° S 21:31:23 68° ESE 21:36:33 10° NNE
Cosmos 1536 4.0 21:34:02 10° NNE 21:37:15 25° ENE 21:37:32 25° E
Cosmos 2221 2.8 21:37:29 41° ESE 21:38:12 45° E 21:42:10 10° NNE
Okean O Rocket 3.7 21:35:21 10° SW 21:38:41 21° W 21:42:01 10° NW
SeaSat 1 3.2 21:36:40 26° ESE 21:38:48 40° NE 21:43:22 10° NNW
Cosmos 1867 3.6 21:33:32 10° NNW 21:39:01 78° NE 21:41:23 35° SE
Cosmos 2150 Rocket 4.4 21:36:39 10° NNW 21:41:57 53° ENE 21:44:04 33° ESE
Okean 1 3.3 21:42:38 48° ESE 21:42:45 48° E 21:46:18 10° NNE
Cosmos 2082 Rocket 2.7 21:42:04 34° SE 21:43:18 38° ESE 21:48:26 10° NE
Okean-O 4.4 21:40:54 12° SSW 21:44:14 26° W 21:47:55 10° NW
SPOT 3 Rocket 3.5 21:43:33 32° S 21:46:01 78° WSW 21:51:11 10° NNW
Cosmos 2341 Rocket 4.0 21:41:34 10° N 21:47:50 82° W 21:51:18 28° S
Cosmos 773 Rocket 3.8 21:51:31 31° S 21:54:00 78° ESE 21:59:09 10° NNE
Cosmos 192 4.4 21:49:36 10° NNW 21:54:32 67° ENE 21:55:58 44° SE
ISS -2.5 21:52:16 10° NW 21:55:25 37° NNE 21:56:12 32° NE
Cosmos 220 Rocket 3.7 21:57:20 61° SSE 21:57:47 68° ESE 22:01:50 10° NNE
Cosmos 2084 Rocket 4.0 21:53:36 10° SW 21:57:48 58° NW 22:02:01 10° NNE
COSMOS 2406 4.0 21:59:10 32° ESE 21:59:28 32° ESE 22:04:28 10° NE
COBE Rocket 4.4 21:55:21 10° NNE 22:00:12 42° E 22:00:56 40° ESE
Cosmos 1766 Rocket 4.3 21:57:42 10° N 22:01:47 37° ENE 22:02:12 36° E
Cosmos 1356 Rocket 4.2 22:04:10 27° SW 22:06:03 48° WNW 22:10:03 10° N
Cosmos 1833 Rocket 4.3 22:06:26 10° WSW 22:11:30 34° NW 22:16:36 10° N
NOSS 3-1 (C) 4.2 22:07:04 10° WSW 22:11:37 43° NW 22:17:04 10° NNE
Cosmos 2333 Rocket 4.5 22:08:43 10° N 22:12:03 15° NE 22:15:22 10° E
DELTA 2 R/B (1) 3.5 22:13:01 10° WSW 22:18:27 57° S 22:19:10 52° SE
Meteor 2-9 Rocket 4.3 22:17:04 10° N 22:22:41 64° ENE 22:24:06 48° SE
Cosmos 1821 Rocket 3.9 22:16:52 10° N 22:22:59 81° W 22:25:07 43° S
Cosmos 1805 3.3 22:21:27 10° N 22:24:24 62° NNW 22:24:24 62° NNW
Meteor 1-19 Rocket 4.4 22:25:46 48° SSE 22:27:19 66° E 22:33:18 10° NNE
Cosmos 1315 Rocket 4.1 22:30:06 28° WSW 22:31:12 34° WNW 22:34:46 10° N
Meteor 1-27 Rocket 3.9 22:30:54 48° ESE 22:31:37 51° E 22:36:58 10° NNE
Terra 4.4 22:30:37 10° WSW 22:31:59 11° W 22:33:21 10° WNW
Cosmos 1980 Rocket 2.3 22:32:32 10° NNW 22:38:03 63° WSW 22:39:12 51° SSW
Helios 1B 4.4 22:35:52 10° NNE 22:40:10 89° WNW 22:40:13 88° SW
NOSS 3-1 (A) 3.5 22:37:42 19° WSW 22:41:05 57° NW 22:46:43 10° NNE
Intercosmos 25 Rocket 4.3 22:41:10 54° S 22:42:30 89° W 22:50:30 10° N
BlueWalker 3 3.5 22:42:11 10° WNW 22:44:08 26° W 22:44:08 26° W
SL-16 R/B 3.1 22:44:08 10° NNW 22:49:27 39° ENE 22:51:04 32° E
Cosmos 1538 Rocket 4.4 22:50:41 46° E 22:50:41 46° E 22:55:18 10° NNE
Cosmos 1975 3.7 22:47:31 10° N 22:50:13 39° NE 22:50:13 39° NE
Meteor 1-11 Rocket 3.6 22:46:57 10° NNW 22:52:29 80° W 22:53:25 62° S
CZ-4C R/B 3.9 22:51:03 10° N 22:54:01 48° NW 22:54:01 48° NW
Spot 4 4.3 22:56:44 48° E 22:56:59 49° ENE 23:01:34 10° N
Cosmos 2322 Rocket 3.6 22:53:22 10° N 22:58:15 29° NE 23:00:24 23° E
Cosmos 2237 4.3 22:53:24 10° NNW 22:59:06 67° ENE 23:00:06 56° ESE
ARIANE 5 R/B 2.6 23:01:14 72° NE 23:01:14 72° NE 23:05:20 10° N
Cosmos 1842 Rocket 3.6 23:02:48 73° NW 23:02:48 73° NW 23:06:50 10° N
Cosmos 1408 Rocket 4.3 22:58:35 10° N 23:02:20 42° ENE 23:02:20 42° ENE
Cosmos 1766 4.4 23:03:05 10° N 23:05:17 36° N 23:05:17 36° N
Cosmos 1470 4.3 23:05:11 10° N 23:07:19 26° NE 23:07:19 26° NE
Nadezhda 3 Rocket 4.4 23:06:38 37° SW 23:08:48 56° WNW 23:14:57 10° N
Cosmos 1805 Rocket 4.4 23:05:44 10° N 23:09:35 40° ENE 23:09:35 40° ENE
Cosmos 2278 3.9 23:10:08 10° NNW 23:15:44 62° ENE 23:16:39 54° ESE
SeaSat 1 3.6 23:16:18 29° WSW 23:16:18 29° WSW 23:20:30 10° NW
Cosmos 405 Rocket 4.1 23:12:55 10° NNW 23:14:58 31° NW 23:14:58 31° NW
Exosat Rocket 4.1 23:12:48 10° NNW 23:17:39 46° ENE 23:18:24 43° E
Cosmos 2360 Rocket 3.4 23:12:52 10° N 23:17:57 34° NE 23:19:47 27° E
Cosmos 1934 Rocket 4.0 23:12:32 10° N 23:18:48 77° W 23:20:02 59° SSW
Cosmos 381 Rocket 4.5 23:17:16 52° SW 23:18:56 80° WNW 23:25:21 10° NNE
ATLAS 3B R/B 2.8 23:17:16 44° SSW 23:20:02 85° ESE 23:27:53 10° NE
USA 229 DEB 3.4 23:20:46 60° SE 23:21:03 61° ESE 23:27:31 10° NE
USA 229 3.4 23:20:54 60° SE 23:21:09 61° ESE 23:27:35 10° NE
CZ-2C R/B 4.0 23:17:26 10° N 23:21:44 57° WNW 23:21:44 57° WNW
Cosmos 1535 Rocket 4.4 23:15:51 10° N 23:22:12 76° E 23:23:18 61° SE
Cosmos 2369 4.2 23:17:43 10° NW 23:23:02 43° WSW 23:23:23 42° WSW
CENTAUR R/B 4.1 23:15:44 10° NNW 23:23:33 46° NE 23:31:24 14° ESE
ASTEX 1 4.5 23:21:53 10° NNE 23:26:06 33° E 23:26:06 33° E
Cosmos 2082 Rocket 3.6 23:23:50 17° WSW 23:27:22 34° NW 23:32:29 10° N
Cosmos 1743 Rocket 4.3 23:23:55 10° N 23:27:46 46° ENE 23:27:46 46° ENE
ISS -0.7 23:29:05 10° WNW 23:29:07 10° WNW 23:29:07 10° WNW
Cosmos 1605 Rocket 3.9 23:27:56 10° N 23:34:17 83° E 23:35:18 65° SSE
Landsat 5 4.1 23:32:20 10° N 23:36:07 51° NW 23:36:07 51° NW
Okean 3 Rocket 4.4 23:32:41 10° NNW 23:36:25 43° WNW 23:36:25 43° WNW
COSMOS 2406 4.3 23:41:09 27° WSW 23:43:36 40° WNW 23:48:58 10° NNE
Cosmos 1151 Rocket 3.5 23:56:09 55° NNW 23:56:09 55° NNW 23:59:36 10° N
USA 59 Rocket 2.0 23:56:15 16° NW 23:56:20 16° NW 23:58:16 10° N
